Location: Madrid
(40.4000°N, 3.6830°W)
Time: 12:18:33
(UTC+02:00)

ISS - Pass Details

Date: 06 April 2020
Orbit: 417 x 419 km, 51.6° (Epoch: 31 May)

Event Time Altitude Azimuth Distance (km) Brightness Sun altitude
Rises 21:46:18 0° 300° (WNW) 2,363 2.0 -12.1°
Reaches altitude 10° 21:48:30 10° 291° (WNW) 1,496 0.6 -12.5°
Maximum altitude 21:51:35 35° 224° (SW) 698 -2.4 -13.1°
Enters shadow 21:54:04 14° 162° (SSE) 1,271 -1.7 -13.5°
